Regional Weather Roundup
Issued by NWS Upton, NY

Current Version | Previous Version | Text Only | Print | Product List | Glossary On
Versions: 1 2 3 4 5 6 7 8 9 10 11 12 13 14 15 16 17 18 19 20 21 22 23 24 25 26 27 28 29 30 31 32 33 34 35 36 37 38 39 40 41 42 43 44 45 46 47 48 49 50
000 ASUS41 KOKX 271805 RWROKX REGIONAL WEATHER ROUNDUP NATIONAL WEATHER SERVICE NEW YORK NY 100 PM EST TUE JAN 27 2015 NOTE: "FAIR" INDICATES FEW OR NO CLOUDS BELOW 12,000 FEET WITH NO SIGNIFICANT WEATHER AND/OR OBSTRUCTIONS TO VISIBILITY. NYZ071-072-176-178-NJZ106-104-271900- NEW YORK CITY METRO AREA CITY SKY/WX TMP DP RH WIND PRES REMARKS CENTRAL PARK PTSUNNY 26 16 65 VRB6 29.68F WCI 19 LAGUARDIA APRT CLOUDY 25 19 78 N12 29.66F WCI 14 KENNEDY INTL CLOUDY 25 17 72 N18 29.67F WCI 11 NEWARK/LIBERTY CLOUDY 28 18 66 NW14 29.68F WCI 17 BRNX BOT. GARD N/A N/A N/A N/A NW16 29.68R TETERBORO PTSUNNY 27 14 59 N14G23 29.67F WCI 15 $$ NYZ177-179-078>081-271900- LONG ISLAND NEW YORK CITY SKY/WX TMP DP RH WIND PRES REMARKS FARMINGDALE LGT SNOW 24 14 65 N16G32 29.63F VSB 3/4 WCI 11 ISLIP LGT SNOW 23 15 71 NW22G29 29.59F BLWGSNOWWCI 8 SHIRLEY LGT SNOW 23 16 74 NW21G31 29.59F WCI 8 WESTHAMPTON LGT SNOW 26 16 65 NW22G33 29.58R VSB 3/4 WCI 12 MONTAUK POINT N/A 23 18 81 N16G29 29.54R WCI 10 $$ NYZ052-065-067-271900- HUDSON VALLEY CITY SKY/WX TMP DP RH WIND PRES REMARKS WHITE PLAINS MOSUNNY 22 14 71 NW30G39 29.62F WCI 4 NEWBURGH LGT SNOW 21 16 79 N12 29.70F FOG WCI 9 MONTGOMERY LGT SNOW 22 16 78 NE5 29.69F WCI 16 POUGHKEEPSIE LGT SNOW 21 13 71 N14G25 29.72F VSB 1 WCI 8 ALBANY SNOW 13 7 77 N9 29.80F VSB 1/2 WCI 1 $$ NJZ001-105-106-008-010-013-015-019>022-104-271900- NEW JERSEY CITY SKY/WX TMP DP RH WIND PRES REMARKS NEWARK/LIBERTY CLOUDY 28 18 66 NW14 29.68F WCI 17 TETERBORO PTSUNNY 27 14 59 N14G23 29.67F WCI 15 CALDWELL CLOUDY 26 14 60 N10G22 29.68F WCI 16 MORRISTOWN CLOUDY 27 18 69 N14G22 29.69F WCI 15 SOMERVILLE CLOUDY 26 16 65 NW16G22 29.69F WCI 14 SUSSEX FLURRIES 23 14 68 NW13G23 29.69F WCI 11 ANDOVER N/A 23 15 71 N8 29.70F WCI 14 TRENTON FLURRIES 26 14 60 NW15G26 29.69S WCI 14 MILLVILLE CLOUDY 33 23 66 N9G21 29.70F WCI 25 ATLANTIC CITY CLOUDY 30 22 72 N17 29.68S WCI 18 WRIGHTSTOWN PTSUNNY 27 21 80 NW16 29.67S WCI 14 TOMS RIVER CLOUDY 28 21 74 NW16G22 29.66F WCI 17 BELMAR CLOUDY 27 18 69 NW18 29.65F WCI 13 $$ PAZ047>061-062-071-271900- EASTERN PENNSYLVANIA CITY SKY/WX TMP DP RH WIND PRES REMARKS PHILADELPHIA PTSUNNY 32 13 45 N16G25 29.72F WCI 21 ALLENTOWN CLOUDY 30 6 36 NW9 29.73F WCI 22 SCRANTON CLOUDY 24 10 55 NW14 29.75F WCI 12 $$ CTZ002-004>006-009-010-012-RIZ004-006-007-MAZ004-011-015-271900- SOUTHERN NEW ENGLAND IN CT CITY SKY/WX TMP DP RH WIND PRES REMARKS BRADLEY INTL CLOUDY 26 13 57 N15G37 29.57F WCI 14 HARTFORD CLOUDY 25 13 60 N14G24 29.59F WCI 13 DANBURY LGT SNOW 19 8 62 NW16G26 29.65F WCI 4 WTRBRY/OXFORD LGT SNOW 18 5 57 N17G23 29.58S WCI 2 BRIDGEPORT CLOUDY 21 13 71 NW15G28 29.62F WCI 8 MERIDEN CLOUDY 23 12 62 NW17G25 29.59S WCI 9 NEW HAVEN CLOUDY 23 14 68 NW16G25 29.59S WCI 10 CHESTER LGT SNOW 23 14 68 N23G37 29.53R VSB 3/4 WCI 7 GROTON SNOW 19 16 88 NW14 29.52S VSB 1/2 WCI 6 WILLIMANTIC LGT SNOW 20 14 77 N12G22 29.55S VSB 1 WCI 8 IN RI CITY SKY/WX TMP DP RH WIND PRES REMARKS PROVIDENCE LGT SNOW 18 12 77 NW22G30 29.48S VSB 1 WCI 1 BLOCK ISLAND CLOUDY 21 10 63 N23G33 29.46S WCI 5 WESTERLY HAZE 21 15 78 N17G29 29.51S VSB 1 WCI 7 IN MA CITY SKY/WX TMP DP RH WIND PRES REMARKS BOSTON HVY SNOW 15 12 88 NW17G31 29.49F VSB 1/4 WCI -1 WORCESTER HVY SNOW 18 14 84 N14G28 29.46F VSB 1/4 WCI 4 WESTFIELD MIX PCPN 26 13 57 N24G32 29.58S WCI 11 PROVINCETOWN N/A N/A N/A N/A MISG N/A NANTUCKET SNOW 30 28 92 N46G61 29.23R VSB 1/4 WCI 12 $$ ANZ330-335-338-340-345-350-353-355-271900- COASTAL MARINE OBSERVATIONS STATION/POSITION TIME SKY/WX TEMP WIND PRES VSBY WAVE AIR SEA DIR/SP/G HT/PER (UTC) (F) (DEG/KT/KT) (MB) (MI) (FT/S) NY HARB ENTRANCE 1800 28 40 340/ 21/ 27 1003.2 10/12 4S FIRE IS 1800 38 N/A 8/12 20S FIRE ISLAND 1700 43 1002.9 12/11 23SW MTP 1800 N/A 11/12 HUDSON CANYON NOT AVBL EXECUTION ROCKS 1700 24 34 320/ 21/ 29 N/A WESTERN LI SOUND 1700 23 340/ 23/ 29 N/A 2/ 3 CENTRAL LI SOUND 1700 26 36 350/ 21/ 27 N/A 3/ 4 EASTERN LI SOUND NOT AVBL ROBBINS REEF 1800 26 340/ 18/ 23 1003.6 $$ >>>>>>>>>>>>>>>>>>>>>>>>>>>> KEY <<<<<<<<<<<<<<<<<<<<<<<<<<< > < > SKY/WX - SKY CONDITION/PRESENT WEATHER < > TMP - TEMPERATURE IN FAHRENHEIT < > DP - DEWPOINT IN FAHRENHEIT < > RH - RELATIVE HUMIDITY IN PERCENT < > WIND - DIRECTION AND SPEED IN MPH < > PRES - MEAN SEA LEVEL PRESSURE IN INCHES OF HG < > WCI - WIND CHILL INDEX < > VSB - VISIBILITY IN MILES < > HX - HEAT INDEX < > TC - TEMPERATURE IN CELSIUS < > VRB - VARIABLE WIND DIRECTION < > < >>>>>>>>>>>>>>>>>>>>>>>>>>>> KEY <<<<<<<<<<<<<<<<<<<<<<<<<<<

USA.gov is the U.S. government's official web portal to all federal, state and local government web resources and services.